Back to provider search

HCPCS Code detail

67820

Removal of eyelashes using forceps

Latest data year CY2023

Ranking basis

Providers are ordered to identify the highest Medicare FFS volume for this code. Higher volume is a utilization signal only and is not presented as a quality, outcomes, or appropriateness measure.

Providers billing code1,402Distinct nationwide ophthalmology providers in Medicare FFS
Services for code50,234Total selected-code Medicare FFS services
Beneficiaries32,713Beneficiaries tied to selected-code rows
Average allowedBy providerDisplayed per row from Medicare allowed amount

Code-specific provider rankings

Filter by state or city, then sort providers by selected-code utilization, beneficiaries, average allowed amount, or overall Medicare FFS footprint.

National code rankState code rankProviderNPIMarketServicesBeneficiariesAverage Medicare allowedPlace of serviceProvider total services
#176Filter by stateDavid Kamen1992706345Los Angeles, CA5228$24.18O3,491
#177Filter by stateRosalie L Bair1225049554Bethesda, MD5130$23.53O3,030
#178Filter by stateValerie S Garden1487785101Santa Rosa, CA5113$26.19O1,259
#179Filter by stateSapir Z Karli1538553862Fort Pierce, FL5123$20.58O6,665
#180Filter by stateRichard Bryant1578586327Dothan, AL5122$23.86O11,549
#181Filter by stateAhmad A Amir1851393086Santa Maria, CA5132$20.77O7,461
#182Filter by stateLisa F Sklar1114926763Vienna, VA5045$19.74O1,084
#183Filter by stateStacey E Gorovoy1255483822Fort Myers, FL5042$20.16O4,632
#184Filter by stateDavid A Chesnutt1538171061Goldsboro, NC5037$19.55O3,722
#185Filter by stateWallace F Goldban1780872671Palm Springs, CA5020$19.77O8,788
#186Filter by stateFrank M Basich1811902257Templeton, CA5041$21.37O5,395
#187Filter by stateHeidi E Houlihan1811937683Chico, CA5035$20.11O5,835
#188Filter by stateOmar Kazi1831134071Orlando, FL5017$25.44O1,891
#189Filter by stateStanley S Kim1003837840Los Angeles, CA4923$23.79O2,243
#190Filter by stateSatyesh Rana1093123739Fort Pierce, FL4929$18.88O13,847
#191Filter by stateJewel Liao1114216249Ventura, CA4931$19.94O5,758
#192Filter by stateKatherine H Baltz1225006497Little Rock, AR4922$21.70O4,000
#193Filter by stateSachin Chhabra1336365451Lakeland, FL4932$18.68O2,926
#194Filter by stateJonathan T Wesson1467416131Glen Cove, NY4935$22.96O7,151
#195Filter by stateKhoa D Nguyen1518982057San Jose, CA4931$25.49O1,599
#196Filter by stateCharles D Richardson1568570117Hattiesburg, MS4939$21.46O7,082
#197Filter by stateMatthew R Kirk1598803066La Jolla, CA4937$19.45O4,706
#198Filter by stateMireille P Hamparian1710969506Glendale, CA4918$24.88O23,293
#199Filter by stateCarlo R Bernardino1770549412Salinas, CA4922$23.56O5,792
#200Filter by stateSteven A Teich1811907710New York, NY4935$21.66O3,228

Full code-specific utilization ranking

Request the full provider utilization export, named peer comparison, and code-specific market scan for this CPT/HCPCS code.

Request full code benchmark